EW6254 Weather Reports


time (UTC)temp
C
wind
direction
speed
KPH
gust
KPH
rain 1hr
cm
rain 24hr
cm
rain mn
cm
humidity
%
barometer
mb
20180221092111 -13 315 6.4 12.9 0.00 0.00 0.00 80 1036.2
20180221091037 -13 355 6.4 14.5 0.00 0.00 0.00 80 1036.2
20180221090034 -13 355 4.8 14.5 0.00 0.00 0.00 80 1035.8
20180221085004 -12 335 6.4 11.3 0.00 0.00 0.00 80 1036.0
20180221083956 -12 331 6.4 12.9 0.00 0.00 0.00 80 1036.1
20180221083010 -12 339 4.8 16.1 0.00 0.03 0.00 80 1036.1
20180221082028 -12 0 3.2 16.1 0.00 0.03 0.00 80 1036.1
20180221081000 -12 346 3.2 9.7 0.00 0.03 0.00 80 1035.9
20180221075927 -12 325 1.6 0.0 0.00 0.03 0.00 80 1035.9
20180221074853 -12 341 0.0 6.4 0.00 0.03 0.00 80 1035.8
20180221073830 -12 340 3.2 0.0 0.00 0.03 0.00 80 1035.7
20180221072803 -12 281 6.4 12.9 0.00 0.03 0.00 80 1035.5
20180221071813 -12 332 4.8 17.7 0.00 0.03 0.00 80 1035.3
20180221070805 -12 300 8.0 17.7 0.00 0.03 0.00 79 1034.9
20180221065751 -12 290 9.7 19.3 0.00 0.03 0.00 79 1034.6
20180221064740 -12 279 11.3 19.3 0.00 0.03 0.00 80 1034.4
20180221063723 -12 347 8.0 17.7 0.00 0.03 0.00 80 1034.5
20180221062715 -12 11 6.4 19.3 0.00 0.03 0.00 79 1034.4
20180221061702 -12 329 8.0 20.9 0.00 0.03 0.00 79 1034.1
20180221060647 -12 341 8.0 20.9 0.00 0.03 0.00 79 1033.8
20180221055629 -12 324 8.0 16.1 0.00 0.03 0.03 79 1033.8
20180221054629 -12 338 6.4 16.1 0.00 0.03 0.03 79 1033.6
20180221053608 -12 338 6.4 14.5 0.00 0.03 0.03 79 1033.6
20180221052606 -12 341 6.4 19.3 0.00 0.03 0.03 79 1033.4
20180221051549 -12 302 8.0 19.3 0.00 0.03 0.03 79 1033.4
20180221050604 -11 340 8.0 19.3 0.00 0.03 0.03 78 1033.0
20180221045623 -11 313 9.7 24.1 0.00 0.03 0.03 78 1032.9
20180221044633 -11 340 9.7 24.1 0.00 0.03 0.03 78 1032.9
20180221043646 -11 331 8.0 22.5 0.00 0.03 0.03 78 1032.7
20180221042620 -11 334 11.3 25.7 0.00 0.03 0.03 78 1032.6
20180221041614 -11 5 11.3 25.7 0.00 0.03 0.03 78 1032.6
20180221040549 -11 355 9.7 25.7 0.00 0.03 0.03 77 1032.4
20180221035528 -11 28 9.7 27.4 0.00 0.03 0.03 78 1032.1
20180221034519 -11 0 9.7 27.4 0.00 0.03 0.03 78 1031.6
20180221033453 -11 344 11.3 25.7 0.00 0.03 0.03 78 1031.4
20180221032424 -11 349 9.7 25.7 0.00 0.03 0.03 78 1031.2
20180221031406 -11 348 9.7 24.1 0.00 0.03 0.03 78 1030.8
20180221030332 -11 5 11.3 29.0 0.00 0.03 0.03 78 1030.9
20180221025313 -11 0 9.7 29.0 0.00 0.03 0.03 78 1030.6
20180221024248 -11 333 11.3 20.9 0.00 0.03 0.03 78 1030.5
20180221023244 -10 330 6.4 27.4 0.00 0.03 0.03 78 1030.2
20180221022247 -10 29 11.3 30.6 0.00 0.03 0.03 78 1030.1
20180221021235 -10 341 14.5 30.6 0.00 0.03 0.03 78 1029.8
20180221020243 -10 341 9.7 27.4 0.00 0.03 0.03 78 1029.8
20180221015215 -10 336 11.3 24.1 0.00 0.03 0.03 78 1029.6
20180221014210 -10 26 11.3 24.1 0.00 0.03 0.03 78 1029.6
20180221013215 -10 9 9.7 25.7 0.00 0.03 0.03 77 1029.3
20180221012219 -10 355 12.9 30.6 0.00 0.03 0.03 77 1029.1
20180221011228 -10 332 12.9 30.6 0.00 0.03 0.03 77 1029.1
20180221010231 -10 296 9.7 25.7 0.00 0.03 0.03 78 1028.8
20180221005219 -9 333 11.3 27.4 0.00 0.03 0.03 77 1028.7
20180221004154 -9 334 11.3 27.4 0.00 0.03 0.03 77 1028.3
20180221003129 -9 342 9.7 25.7 0.00 0.03 0.03 77 1028.2
20180221002132 -9 0 11.3 25.7 0.00 0.03 0.03 76 1028.2
20180221001147 -9 355 12.9 24.1 0.00 0.03 0.03 76 1028.2
20180221000146 -8 339 6.4 27.4 0.00 0.03 0.03 77 1028.0
20180220235120 -8 0 11.3 27.4 0.00 0.03 0.03 76 1028.0
20180220234122 -8 0 11.3 29.0 0.00 0.03 0.03 76 1027.6
20180220233142 -8 0 11.3 33.8 0.00 0.03 0.03 76 1027.3
20180220232108 -8 0 12.9 33.8 0.00 0.03 0.03 76 1027.3
20180220231104 -8 0 11.3 29.0 0.00 0.03 0.03 76 1026.6
20180220230026 -8 0 11.3 25.7 0.00 0.03 0.03 76 1026.3
20180220225007 -8 0 11.3 29.0 0.00 0.03 0.03 76 1026.1
20180220223946 -8 0 14.5 33.8 0.00 0.03 0.03 76 1026.3
20180220222924 -8 0 14.5 33.8 0.00 0.03 0.03 76 1026.0
20180220221942 -8 0 12.9 29.0 0.00 0.03 0.03 77 1025.9
20180220221005 -8 0 16.1 29.0 0.00 0.03 0.03 76 1025.5
20180220220001 -8 0 11.3 30.6 0.00 0.03 0.03 77 1025.4
20180220215010 -8 0 8.0 30.6 0.00 0.03 0.03 77 1025.8
20180220214004 -8 0 9.7 29.0 0.00 0.03 0.03 77 1025.1
20180220213000 -8 0 12.9 29.0 0.00 0.03 0.03 77 1025.0
20180220212010 -8 0 11.3 27.4 0.00 0.03 0.03 77 1024.9
20180220210953 -8 0 12.9 27.4 0.00 0.03 0.03 77 1024.5
20180220205942 -8 0 12.9 27.4 0.00 0.03 0.03 78 1024.2
20180220204937 -8 0 12.9 32.2 0.00 0.03 0.03 77 1024.1
20180220203947 -8 0 11.3 32.2 0.00 0.03 0.03 78 1023.6
20180220203006 -8 0 14.5 30.6 0.00 0.03 0.03 78 1023.3
20180220202029 -8 0 12.9 35.4 0.00 0.03 0.03 78 1023.2
20180220201042 -8 0 16.1 38.6 0.00 0.03 0.03 77 1023.1
20180220200035 -8 0 11.3 38.6 0.00 0.03 0.03 78 1022.9
20180220195015 -8 0 12.9 32.2 0.00 0.03 0.03 78 1022.8
20180220194001 -8 0 14.5 32.2 0.00 0.03 0.03 78 1022.5
20180220193022 -8 0 11.3 29.0 0.00 0.03 0.03 79 1022.6
20180220192015 -8 0 11.3 29.0 0.00 0.03 0.03 79 1022.4
20180220190939 -8 0 9.7 24.1 0.00 0.03 0.03 79 1022.5
20180220185908 -8 0 9.7 24.1 0.00 0.03 0.03 78 1023.2
20180220184922 -8 0 9.7 20.9 0.00 0.03 0.03 79 1022.8
20180220183904 -8 0 6.4 24.1 0.00 0.03 0.03 79 1022.3
20180220182853 -8 0 8.0 24.1 0.00 0.03 0.03 79 1022.4
20180220181832 -8 27 8.0 22.5 0.00 0.03 0.03 80 1022.3
20180220180835 -9 271 9.7 24.1 0.00 0.03 0.03 80 1021.9
20180220175843 -9 0 8.0 24.1 0.00 0.03 0.03 80 1021.8
20180220174905 -9 304 11.3 27.4 0.00 0.03 0.03 80 1021.6
20180220173849 -10 0 11.3 29.0 0.00 0.03 0.03 79 1021.3
20180220172842 -10 0 12.9 29.0 0.00 0.03 0.03 80 1021.4
20180220171823 -10 0 12.9 25.7 0.00 0.03 0.03 79 1021.7
20180220170844 -10 346 9.7 25.7 0.00 0.03 0.03 79 1021.3
20180220165902 -9 294 11.3 25.7 0.00 0.03 0.03 80 1021.3
20180220164924 -10 0 11.3 30.6 0.00 0.03 0.03 80 1021.2
20180220163918 -10 0 9.7 32.2 0.00 0.03 0.03 81 1020.9
20180220162857 -10 0 11.3 32.2 0.00 0.03 0.03 81 1020.8
20180220161852 -9 0 6.4 25.7 0.00 0.03 0.03 81 1020.5
20180220160847 -9 0 0.0 0.0 0.00 0.03 0.03 82 1020.3
20180220155823 -9 0 0.0 0.0 0.00 0.03 0.03 82 1020.4
20180220154755 -10 0 0.0 0.0 0.00 0.03 0.03 83 1020.6
20180220153749 -10 0 0.0 0.0 0.00 0.03 0.03 83 1020.3
20180220152730 -10 0 0.0 0.0 0.00 0.03 0.03 84 1020.1
20180220151713 -10 0 0.0 0.0 0.00 0.03 0.03 84 1019.7
20180220150700 -9 34 0.0 0.0 0.00 0.03 0.03 85 1020.0
20180220145722 -9 291 0.0 0.0 0.00 0.03 0.03 85 1020.1
20180220144738 -9 346 0.0 0.0 0.00 0.03 0.03 86 1019.8
20180220143714 -9 336 0.0 0.0 0.00 0.03 0.03 86 1019.4
20180220142656 -9 339 0.0 0.0 0.00 0.03 0.03 86 1019.1
20180220141707 -9 301 0.0 0.0 0.00 0.03 0.03 87 1018.9
20180220140638 -9 305 0.0 0.0 0.00 0.03 0.03 87 1018.6
20180220135632 -9 309 0.0 0.0 0.00 0.03 0.03 88 1017.8
20180220134613 -8 0 0.0 0.0 0.00 0.03 0.03 88 1017.3
20180220133631 -8 299 0.0 0.0 0.00 0.03 0.03 89 1016.6
20180220132619 -8 0 0.0 0.0 0.00 0.03 0.03 89 1016.6
20180220131551 -8 306 0.0 0.0 0.00 0.03 0.03 89 1017.1
20180220130537 -8 323 0.0 0.0 0.00 0.03 0.03 90 1016.6
20180220125558 -8 0 0.0 0.0 0.00 0.03 0.03 90 1016.8
20180220124522 -8 0 0.0 0.0 0.00 0.03 0.03 90 1017.4
20180220123509 -8 0 0.0 0.0 0.00 0.03 0.03 90 1016.0
20180220122436 -8 0 0.0 0.0 0.00 0.03 0.03 91 1015.7
20180220121429 -8 0 0.0 0.0 0.00 0.03 0.03 91 1015.7
20180220120353 -7 0 0.0 0.0 0.00 0.03 0.03 91 1016.2
20180220115331 -7 0 0.0 0.0 0.00 0.03 0.03 91 1016.0
20180220114311 -7 0 0.0 0.0 0.00 0.03 0.03 91 1015.4
20180220113316 -7 0 0.0 0.0 0.00 0.03 0.03 91 1015.2
20180220112242 -7 0 0.0 0.0 0.00 0.03 0.03 91 1015.6
20180220111227 -7 0 0.0 0.0 0.00 0.03 0.03 91 1015.3
20180220110112 -7 0 0.0 0.0 0.00 0.03 0.03 91 1014.8
20180220105113 -7 0 0.0 0.0 0.00 0.03 0.03 91 1014.5
20180220104118 -7 0 0.0 0.0 0.00 0.03 0.03 91 1014.2
20180220103105 -7 0 0.0 0.0 0.00 0.03 0.03 91 1014.2
20180220102054 -7 0 0.0 0.0 0.00 0.03 0.03 91 1014.2
20180220101112 -7 0 6.4 16.1 0.00 0.05 0.03 91 1014.1
20180220100041 -7 0 4.8 14.5 0.00 0.05 0.03 91 1013.9
20180220095008 -7 0 4.8 12.9 0.00 0.05 0.03 91 1013.8
20180220094001 -7 0 6.4 16.1 0.00 0.10 0.03 91 1013.7
20180220092942 -7 0 6.4 17.7 0.00 0.10 0.03 91 1013.8